contact:dominique.lefevre@mio.osupytheas.fr, maurice.libes@osupytheas.fr, didier.mallarino@osupytheas.fr
Project:EMSO http://www.emso-fr.org/EMSO-France
Depth: 2436.0 m
Title:EMSO Ligure Ouest : Data MII capteur MICROCAT
DateTime_Computer,Latitude,Longitude,Temperature,Conductivity,Pressure,DateTime_Instrument
DateTime_Computer,Latitude,Longitude,degC,S m-1,dbar,DateTime_Instrument
2019-12-11T00:02:35Z,42.805,6.029,13.2963,4.59957,2469.783,2019-12-11T02:03:04Z
2019-12-11T00:05:38Z,42.805,6.029,13.2958,4.59957,2469.783,2019-12-11T02:06:07Z
2019-12-11T00:08:41Z,42.805,6.029,13.2958,4.59957,2469.783,2019-12-11T02:09:11Z
2019-12-11T00:11:44Z,42.805,6.029,13.2964,4.59957,2469.773,2019-12-11T02:12:14Z
2019-12-11T00:14:47Z,42.805,6.029,13.2961,4.59957,2469.797,2019-12-11T02:15:17Z
2019-12-11T00:17:50Z,42.805,6.029,13.2958,4.59958,2469.797,2019-12-11T02:18:20Z
2019-12-11T00:20:54Z,42.805,6.029,13.2959,4.59958,2469.76,2019-12-11T02:21:23Z
2019-12-11T00:23:57Z,42.805,6.029,13.2954,4.59957,2469.783,2019-12-11T02:24:27Z
2019-12-11T00:27:00Z,42.805,6.029,13.2959,4.59958,2469.806,2019-12-11T02:27:30Z
2019-12-11T00:30:03Z,42.805,6.029,13.2960,4.59960,2469.806,2019-12-11T02:30:33Z
2019-12-11T00:33:06Z,42.805,6.029,13.2961,4.59958,2469.783,2019-12-11T02:33:36Z
2019-12-11T00:36:10Z,42.805,6.029,13.2962,4.59957,2469.821,2019-12-11T02:36:39Z
2019-12-11T00:39:13Z,42.805,6.029,13.2961,4.59958,2469.783,2019-12-11T02:39:42Z
2019-12-11T00:42:16Z,42.805,6.029,13.2962,4.59957,2469.821,2019-12-11T02:42:46Z
2019-12-11T00:45:19Z,42.805,6.029,13.2960,4.59960,2469.773,2019-12-11T02:45:49Z
2019-12-11T00:48:22Z,42.805,6.029,13.2959,4.59957,2469.783,2019-12-11T02:48:52Z
2019-12-11T00:51:25Z,42.805,6.029,13.2958,4.59957,2469.821,2019-12-11T02:51:55Z
2019-12-11T00:54:29Z,42.805,6.029,13.2962,4.59958,2469.806,2019-12-11T02:54:58Z
2019-12-11T00:57:32Z,42.805,6.029,13.2956,4.59957,2469.806,2019-12-11T02:58:02Z
2019-12-11T01:00:35Z,42.805,6.029,13.2957,4.59956,2469.783,2019-12-11T03:01:05Z
2019-12-11T01:03:38Z,42.805,6.029,13.2959,4.59958,2469.769,2019-12-11T03:04:08Z
2019-12-11T01:06:41Z,42.805,6.029,13.2959,4.59958,2469.737,2019-12-11T03:07:11Z
2019-12-11T01:09:45Z,42.805,6.029,13.2958,4.59957,2469.797,2019-12-11T03:10:14Z
2019-12-11T01:12:48Z,42.805,6.029,13.2957,4.59961,2469.793,2019-12-11T03:13:18Z
2019-12-11T01:15:51Z,42.805,6.029,13.2959,4.59958,2469.806,2019-12-11T03:16:21Z
2019-12-11T01:18:54Z,42.805,6.029,13.2958,4.59957,2469.783,2019-12-11T03:19:24Z
2019-12-11T01:21:57Z,42.805,6.029,13.2956,4.59958,2469.867,2019-12-11T03:22:27Z
2019-12-11T01:25:01Z,42.805,6.029,13.2958,4.59959,2469.806,2019-12-11T03:25:30Z
2019-12-11T01:28:04Z,42.805,6.029,13.2961,4.59957,2469.821,2019-12-11T03:28:34Z
2019-12-11T01:31:07Z,42.805,6.029,13.2961,4.59958,2469.806,2019-12-11T03:31:37Z
2019-12-11T01:34:10Z,42.805,6.029,13.2964,4.59957,2469.783,2019-12-11T03:34:40Z
2019-12-11T01:37:13Z,42.805,6.029,13.2960,4.59957,2469.806,2019-12-11T03:37:43Z
2019-12-11T01:40:17Z,42.805,6.029,13.2958,4.59961,2469.821,2019-12-11T03:40:46Z
2019-12-11T01:43:20Z,42.805,6.029,13.2960,4.59958,2469.821,2019-12-11T03:43:50Z
2019-12-11T01:46:23Z,42.805,6.029,13.2959,4.59957,2469.83,2019-12-11T03:46:53Z
2019-12-11T01:49:26Z,42.805,6.029,13.2961,4.59958,2469.773,2019-12-11T03:49:56Z
2019-12-11T01:52:30Z,42.805,6.029,13.2961,4.59958,2469.806,2019-12-11T03:52:59Z
2019-12-11T01:55:33Z,42.805,6.029,13.2960,4.59958,2469.844,2019-12-11T03:56:03Z
2019-12-11T01:58:36Z,42.805,6.029,13.2958,4.59958,2469.806,2019-12-11T03:59:06Z
2019-12-11T02:01:39Z,42.805,6.029,13.2958,4.59958,2469.821,2019-12-11T04:02:09Z
2019-12-11T02:04:42Z,42.805,6.029,13.2964,4.59958,2469.83,2019-12-11T04:05:12Z
2019-12-11T02:07:46Z,42.805,6.029,13.2957,4.59958,2469.783,2019-12-11T04:08:15Z
2019-12-11T02:10:49Z,42.805,6.029,13.2958,4.59958,2469.806,2019-12-11T04:11:18Z
2019-12-11T02:13:52Z,42.805,6.029,13.2960,4.59958,2469.83,2019-12-11T04:14:22Z
2019-12-11T02:16:55Z,42.805,6.029,13.2962,4.59960,2469.806,2019-12-11T04:17:25Z
2019-12-11T02:19:58Z,42.805,6.029,13.2960,4.59957,2469.83,2019-12-11T04:20:28Z
2019-12-11T02:23:01Z,42.805,6.029,13.2960,4.59958,2469.806,2019-12-11T04:23:31Z
2019-12-11T02:26:05Z,42.805,6.029,13.2958,4.59957,2469.867,2019-12-11T04:26:34Z
2019-12-11T02:29:08Z,42.805,6.029,13.2957,4.59957,2469.83,2019-12-11T04:29:38Z
2019-12-11T02:32:11Z,42.805,6.029,13.2962,4.59957,2469.853,2019-12-11T04:32:41Z
2019-12-11T02:35:14Z,42.805,6.029,13.2963,4.59957,2469.844,2019-12-11T04:35:44Z
2019-12-11T02:38:17Z,42.805,6.029,13.2960,4.59958,2469.83,2019-12-11T04:38:47Z
2019-12-11T02:41:21Z,42.805,6.029,13.2959,4.59957,2469.83,2019-12-11T04:41:50Z
2019-12-11T02:44:24Z,42.805,6.029,13.2961,4.59957,2469.844,2019-12-11T04:44:54Z
2019-12-11T02:47:27Z,42.805,6.029,13.2960,4.59957,2469.876,2019-12-11T04:47:57Z
2019-12-11T02:50:30Z,42.805,6.029,13.2958,4.59957,2469.853,2019-12-11T04:51:00Z
2019-12-11T02:53:34Z,42.805,6.029,13.2958,4.59957,2469.821,2019-12-11T04:54:03Z
2019-12-11T02:56:37Z,42.805,6.029,13.2957,4.59958,2469.867,2019-12-11T04:57:06Z
2019-12-11T02:59:40Z,42.805,6.029,13.2958,4.59957,2469.821,2019-12-11T05:00:10Z
2019-12-11T03:02:43Z,42.805,6.029,13.2962,4.59957,2469.853,2019-12-11T05:03:13Z
2019-12-11T03:05:46Z,42.805,6.029,13.2958,4.59958,2469.83,2019-12-11T05:06:16Z
2019-12-11T03:08:49Z,42.805,6.029,13.2962,4.59958,2469.89,2019-12-11T05:09:19Z
2019-12-11T03:11:53Z,42.805,6.029,13.2961,4.59957,2469.853,2019-12-11T05:12:22Z
2019-12-11T03:14:56Z,42.805,6.029,13.2962,4.59957,2469.876,2019-12-11T05:15:26Z
2019-12-11T03:17:59Z,42.805,6.029,13.2961,4.59957,2469.876,2019-12-11T05:18:29Z
2019-12-11T03:21:03Z,42.805,6.029,13.2958,4.59957,2469.89,2019-12-11T05:21:32Z
2019-12-11T03:24:06Z,42.805,6.029,13.2961,4.59958,2469.89,2019-12-11T05:24:35Z
2019-12-11T03:27:09Z,42.805,6.029,13.2958,4.59958,2469.89,2019-12-11T05:27:39Z
2019-12-11T03:30:12Z,42.805,6.029,13.2962,4.59958,2469.853,2019-12-11T05:30:42Z
2019-12-11T03:33:15Z,42.805,6.029,13.2959,4.59957,2469.89,2019-12-11T05:33:45Z
2019-12-11T03:36:19Z,42.805,6.029,13.2960,4.59957,2469.9,2019-12-11T05:36:48Z
2019-12-11T03:39:22Z,42.805,6.029,13.2959,4.59957,2469.83,2019-12-11T05:39:52Z
2019-12-11T03:42:25Z,42.805,6.029,13.2964,4.59958,2469.876,2019-12-11T05:42:55Z
2019-12-11T03:45:28Z,42.805,6.029,13.2959,4.59957,2469.863,2019-12-11T05:45:58Z
2019-12-11T03:48:31Z,42.805,6.029,13.2955,4.59956,2469.9,2019-12-11T05:49:01Z
2019-12-11T03:51:35Z,42.805,6.029,13.2958,4.59957,2469.923,2019-12-11T05:52:04Z
2019-12-11T03:54:38Z,42.805,6.029,13.2958,4.59957,2469.914,2019-12-11T05:55:07Z
2019-12-11T03:57:41Z,42.805,6.029,13.2958,4.59958,2469.9,2019-12-11T05:58:11Z
2019-12-11T04:00:44Z,42.805,6.029,13.2961,4.59956,2469.9,2019-12-11T06:01:14Z
2019-12-11T04:03:47Z,42.805,6.029,13.2958,4.59958,2469.937,2019-12-11T06:04:17Z
2019-12-11T04:06:50Z,42.805,6.029,13.2958,4.59957,2469.937,2019-12-11T06:07:20Z
2019-12-11T04:09:54Z,42.805,6.029,13.2960,4.59960,2469.937,2019-12-11T06:10:23Z
2019-12-11T04:12:57Z,42.805,6.029,13.2960,4.59958,2469.923,2019-12-11T06:13:27Z
2019-12-11T04:16:00Z,42.805,6.029,13.2959,4.59957,2469.923,2019-12-11T06:16:30Z
2019-12-11T04:19:03Z,42.805,6.029,13.2958,4.59957,2469.9,2019-12-11T06:19:33Z
2019-12-11T04:22:06Z,42.805,6.029,13.2962,4.59958,2469.9,2019-12-11T06:22:36Z
2019-12-11T04:25:10Z,42.805,6.029,13.2958,4.59958,2469.923,2019-12-11T06:25:39Z
2019-12-11T04:28:13Z,42.805,6.029,13.2964,4.59957,2469.923,2019-12-11T06:28:42Z
2019-12-11T04:31:16Z,42.805,6.029,13.2959,4.59959,2469.97,2019-12-11T06:31:46Z
2019-12-11T04:34:19Z,42.805,6.029,13.2957,4.59958,2469.96,2019-12-11T06:34:49Z
2019-12-11T04:37:22Z,42.805,6.029,13.2960,4.59959,2469.947,2019-12-11T06:37:52Z
2019-12-11T04:40:25Z,42.805,6.029,13.2960,4.59958,2469.96,2019-12-11T06:40:55Z
2019-12-11T04:43:29Z,42.805,6.029,13.2961,4.59958,2469.923,2019-12-11T06:43:58Z
2019-12-11T04:46:32Z,42.805,6.029,13.2959,4.59958,2469.923,2019-12-11T06:47:02Z
2019-12-11T04:49:35Z,42.805,6.029,13.2958,4.59957,2469.96,2019-12-11T06:50:05Z
2019-12-11T04:52:38Z,42.805,6.029,13.2958,4.59958,2469.947,2019-12-11T06:53:08Z
2019-12-11T04:55:41Z,42.805,6.029,13.2957,4.59958,2469.97,2019-12-11T06:56:11Z
2019-12-11T04:58:44Z,42.805,6.029,13.2957,4.59957,2469.993,2019-12-11T06:59:14Z
2019-12-11T05:01:48Z,42.805,6.029,13.2959,4.59958,2469.97,2019-12-11T07:02:17Z
2019-12-11T05:04:51Z,42.805,6.029,13.2957,4.59957,2470.007,2019-12-11T07:05:21Z
2019-12-11T05:07:54Z,42.805,6.029,13.2961,4.59958,2469.96,2019-12-11T07:08:24Z
2019-12-11T05:10:57Z,42.805,6.029,13.2963,4.59958,2469.937,2019-12-11T07:11:27Z
2019-12-11T05:14:00Z,42.805,6.029,13.2960,4.59958,2469.97,2019-12-11T07:14:30Z
2019-12-11T05:17:04Z,42.805,6.029,13.2962,4.59958,2469.97,2019-12-11T07:17:33Z
2019-12-11T05:20:07Z,42.805,6.029,13.2961,4.59958,2469.923,2019-12-11T07:20:37Z
2019-12-11T05:23:10Z,42.805,6.029,13.2961,4.59957,2469.97,2019-12-11T07:23:40Z
2019-12-11T05:26:13Z,42.805,6.029,13.2958,4.59957,2469.96,2019-12-11T07:26:43Z
2019-12-11T05:29:16Z,42.805,6.029,13.2960,4.59957,2469.993,2019-12-11T07:29:46Z
2019-12-11T05:32:20Z,42.805,6.029,13.2961,4.59957,2469.97,2019-12-11T07:32:49Z
2019-12-11T05:35:23Z,42.805,6.029,13.2960,4.59958,2469.993,2019-12-11T07:35:53Z
2019-12-11T05:38:26Z,42.805,6.029,13.2958,4.59958,2470.03,2019-12-11T07:38:56Z
2019-12-11T05:41:29Z,42.805,6.029,13.2957,4.59958,2469.993,2019-12-11T07:41:59Z
2019-12-11T05:44:32Z,42.805,6.029,13.2958,4.59958,2469.97,2019-12-11T07:45:02Z
2019-12-11T05:47:36Z,42.805,6.029,13.2961,4.59958,2470.017,2019-12-11T07:48:05Z
2019-12-11T05:50:39Z,42.805,6.029,13.2962,4.59958,2470.03,2019-12-11T07:51:09Z
2019-12-11T05:53:42Z,42.805,6.029,13.2957,4.59958,2469.947,2019-12-11T07:54:12Z
2019-12-11T05:56:45Z,42.805,6.029,13.2961,4.59958,2469.97,2019-12-11T07:57:15Z
2019-12-11T05:59:48Z,42.805,6.029,13.2960,4.59958,2469.97,2019-12-11T08:00:18Z
2019-12-11T06:02:52Z,42.805,6.029,13.2960,4.59958,2469.993,2019-12-11T08:03:21Z
2019-12-11T06:05:55Z,42.805,6.029,13.2958,4.59958,2470.017,2019-12-11T08:06:24Z
2019-12-11T06:08:58Z,42.805,6.029,13.2960,4.59958,2470.017,2019-12-11T08:09:28Z
2019-12-11T06:12:01Z,42.805,6.029,13.2964,4.59958,2470.04,2019-12-11T08:12:31Z
2019-12-11T06:15:04Z,42.805,6.029,13.2963,4.59958,2469.993,2019-12-11T08:15:34Z
2019-12-11T06:18:08Z,42.805,6.029,13.2961,4.59958,2469.993,2019-12-11T08:18:37Z
2019-12-11T06:21:11Z,42.805,6.029,13.2960,4.59957,2469.97,2019-12-11T08:21:41Z
2019-12-11T06:24:14Z,42.805,6.029,13.2960,4.59957,2470.03,2019-12-11T08:24:44Z
2019-12-11T06:27:17Z,42.805,6.029,13.2959,4.59958,2469.993,2019-12-11T08:27:47Z
2019-12-11T06:30:20Z,42.805,6.029,13.2963,4.59958,2470.017,2019-12-11T08:30:50Z
2019-12-11T06:33:23Z,42.805,6.029,13.2959,4.59958,2470.007,2019-12-11T08:33:53Z
2019-12-11T06:36:27Z,42.805,6.029,13.2961,4.59958,2469.993,2019-12-11T08:36:56Z
2019-12-11T06:39:30Z,42.805,6.029,13.2959,4.59957,2470.017,2019-12-11T08:40:00Z
2019-12-11T06:42:33Z,42.805,6.029,13.2962,4.59958,2470.017,2019-12-11T08:43:03Z
2019-12-11T06:45:36Z,42.805,6.029,13.2958,4.59958,2470.04,2019-12-11T08:46:06Z
2019-12-11T06:48:39Z,42.805,6.029,13.2957,4.59958,2470.017,2019-12-11T08:49:09Z
2019-12-11T06:51:43Z,42.805,6.029,13.2961,4.59958,2470.03,2019-12-11T08:52:12Z
2019-12-11T06:54:46Z,42.805,6.029,13.2960,4.59958,2470.017,2019-12-11T08:55:16Z
2019-12-11T06:57:49Z,42.805,6.029,13.2958,4.59958,2469.993,2019-12-11T08:58:19Z
2019-12-11T07:00:52Z,42.805,6.029,13.2958,4.59958,2469.993,2019-12-11T09:01:22Z
2019-12-11T07:03:55Z,42.805,6.029,13.2960,4.59957,2470.017,2019-12-11T09:04:25Z
2019-12-11T07:06:59Z,42.805,6.029,13.2957,4.59958,2469.97,2019-12-11T09:07:28Z
2019-12-11T07:10:02Z,42.805,6.029,13.2957,4.59958,2469.993,2019-12-11T09:10:32Z
2019-12-11T07:13:05Z,42.805,6.029,13.2961,4.59958,2469.993,2019-12-11T09:13:35Z
2019-12-11T07:16:08Z,42.805,6.029,13.2960,4.59958,2470.007,2019-12-11T09:16:38Z
2019-12-11T07:19:11Z,42.805,6.029,13.2958,4.59958,2470.017,2019-12-11T09:19:41Z
2019-12-11T07:22:15Z,42.805,6.029,13.2963,4.59957,2470.007,2019-12-11T09:22:44Z
2019-12-11T07:25:18Z,42.805,6.029,13.2958,4.59958,2469.993,2019-12-11T09:25:48Z
2019-12-11T07:28:21Z,42.805,6.029,13.2960,4.59958,2469.993,2019-12-11T09:28:51Z
2019-12-11T07:31:24Z,42.805,6.029,13.2960,4.59958,2470.04,2019-12-11T09:31:54Z
2019-12-11T07:34:28Z,42.805,6.029,13.2962,4.59958,2470.03,2019-12-11T09:34:57Z
2019-12-11T07:37:31Z,42.805,6.029,13.2962,4.59957,2470.017,2019-12-11T09:38:00Z
2019-12-11T07:40:34Z,42.805,6.029,13.2962,4.59958,2470.017,2019-12-11T09:41:04Z
2019-12-11T07:43:37Z,42.805,6.029,13.2961,4.59959,2469.97,2019-12-11T09:44:07Z
2019-12-11T07:46:40Z,42.805,6.029,13.2959,4.59958,2469.979,2019-12-11T09:47:10Z
2019-12-11T07:49:43Z,42.805,6.029,13.2958,4.59957,2470.017,2019-12-11T09:50:13Z
2019-12-11T07:52:47Z,42.805,6.029,13.2961,4.59958,2469.993,2019-12-11T09:53:16Z
2019-12-11T07:55:50Z,42.805,6.029,13.2960,4.59957,2470.007,2019-12-11T09:56:20Z
2019-12-11T07:58:53Z,42.805,6.029,13.2962,4.59958,2469.993,2019-12-11T09:59:23Z
2019-12-11T08:01:56Z,42.805,6.029,13.2958,4.59958,2469.97,2019-12-11T10:02:26Z
2019-12-11T08:04:59Z,42.805,6.029,13.2961,4.59958,2469.993,2019-12-11T10:05:29Z
2019-12-11T08:08:03Z,42.805,6.029,13.2959,4.59958,2469.979,2019-12-11T10:08:32Z
2019-12-11T08:11:06Z,42.805,6.029,13.2962,4.59958,2469.97,2019-12-11T10:11:36Z
2019-12-11T08:14:09Z,42.805,6.029,13.2962,4.59958,2469.993,2019-12-11T10:14:39Z
2019-12-11T08:17:12Z,42.805,6.029,13.2961,4.59958,2469.956,2019-12-11T10:17:42Z
2019-12-11T08:20:16Z,42.805,6.029,13.2958,4.59958,2469.97,2019-12-11T10:20:45Z
2019-12-11T08:23:19Z,42.805,6.029,13.2959,4.59958,2469.993,2019-12-11T10:23:49Z
2019-12-11T08:26:22Z,42.805,6.029,13.2957,4.59958,2469.97,2019-12-11T10:26:52Z
2019-12-11T08:29:25Z,42.805,6.029,13.2960,4.59958,2469.984,2019-12-11T10:29:55Z
2019-12-11T08:32:28Z,42.805,6.029,13.2958,4.59958,2469.947,2019-12-11T10:32:58Z
2019-12-11T08:35:31Z,42.805,6.029,13.2961,4.59958,2469.984,2019-12-11T10:36:01Z
2019-12-11T08:38:35Z,42.805,6.029,13.2963,4.59957,2469.97,2019-12-11T10:39:04Z
2019-12-11T08:41:38Z,42.805,6.029,13.2963,4.59958,2469.984,2019-12-11T10:42:08Z
2019-12-11T08:44:41Z,42.805,6.029,13.2963,4.59958,2469.984,2019-12-11T10:45:11Z
2019-12-11T08:47:44Z,42.805,6.029,13.2958,4.59958,2469.97,2019-12-11T10:48:14Z
2019-12-11T08:50:47Z,42.805,6.029,13.2959,4.59958,2469.97,2019-12-11T10:51:17Z
2019-12-11T08:53:51Z,42.805,6.029,13.2961,4.59958,2469.984,2019-12-11T10:54:20Z
2019-12-11T08:56:54Z,42.805,6.029,13.2958,4.59958,2470.007,2019-12-11T10:57:23Z
2019-12-11T08:59:57Z,42.805,6.029,13.2959,4.59958,2469.97,2019-12-11T11:00:27Z
2019-12-11T09:03:00Z,42.805,6.029,13.2958,4.59958,2469.984,2019-12-11T11:03:30Z
2019-12-11T09:06:03Z,42.805,6.029,13.2958,4.59957,2469.96,2019-12-11T11:06:33Z
2019-12-11T09:09:06Z,42.805,6.029,13.2958,4.59958,2469.97,2019-12-11T11:09:36Z
2019-12-11T09:12:10Z,42.805,6.029,13.2957,4.59957,2470.017,2019-12-11T11:12:39Z
2019-12-11T09:15:13Z,42.805,6.029,13.2961,4.59958,2470.007,2019-12-11T11:15:43Z
2019-12-11T09:18:16Z,42.805,6.029,13.2958,4.59957,2469.993,2019-12-11T11:18:46Z
2019-12-11T09:21:19Z,42.805,6.029,13.2958,4.59957,2469.947,2019-12-11T11:21:49Z
2019-12-11T09:24:22Z,42.805,6.029,13.2962,4.59957,2469.97,2019-12-11T11:24:52Z
2019-12-11T09:27:26Z,42.805,6.029,13.2958,4.59957,2469.909,2019-12-11T11:27:55Z
2019-12-11T09:30:29Z,42.805,6.029,13.2961,4.59958,2469.96,2019-12-11T11:30:59Z
2019-12-11T09:33:32Z,42.805,6.029,13.2959,4.59957,2469.947,2019-12-11T11:34:02Z
2019-12-11T09:36:35Z,42.805,6.029,13.2959,4.59958,2469.96,2019-12-11T11:37:05Z
2019-12-11T09:39:38Z,42.805,6.029,13.2959,4.59958,2469.97,2019-12-11T11:40:08Z
2019-12-11T09:42:42Z,42.805,6.029,13.2957,4.59958,2469.933,2019-12-11T11:43:11Z
2019-12-11T09:45:45Z,42.805,6.029,13.2956,4.59958,2469.923,2019-12-11T11:46:15Z
2019-12-11T09:48:48Z,42.805,6.029,13.2962,4.59957,2469.947,2019-12-11T11:49:18Z
2019-12-11T09:51:51Z,42.805,6.029,13.2960,4.59958,2469.947,2019-12-11T11:52:21Z
2019-12-11T09:54:54Z,42.805,6.029,13.2959,4.59957,2469.947,2019-12-11T11:55:24Z
2019-12-11T09:57:58Z,42.805,6.029,13.2957,4.59957,2469.947,2019-12-11T11:58:27Z
2019-12-11T10:01:01Z,42.805,6.029,13.2962,4.59957,2469.947,2019-12-11T12:01:31Z
2019-12-11T10:04:04Z,42.805,6.029,13.2960,4.59958,2469.96,2019-12-11T12:04:34Z
2019-12-11T10:07:07Z,42.805,6.029,13.2962,4.59957,2469.914,2019-12-11T12:07:37Z
2019-12-11T10:10:10Z,42.805,6.029,13.2960,4.59957,2469.937,2019-12-11T12:10:40Z
2019-12-11T10:13:14Z,42.805,6.029,13.2959,4.59958,2469.914,2019-12-11T12:13:43Z
2019-12-11T10:16:17Z,42.805,6.029,13.2958,4.59957,2469.923,2019-12-11T12:16:47Z
2019-12-11T10:19:20Z,42.805,6.029,13.2955,4.59956,2469.9,2019-12-11T12:19:50Z
2019-12-11T10:22:23Z,42.805,6.029,13.2964,4.59958,2469.937,2019-12-11T12:22:53Z
2019-12-11T10:25:27Z,42.805,6.029,13.2961,4.59957,2469.923,2019-12-11T12:25:56Z
2019-12-11T10:28:30Z,42.805,6.029,13.2958,4.59957,2469.947,2019-12-11T12:29:00Z
2019-12-11T10:31:33Z,42.805,6.029,13.2959,4.59957,2469.914,2019-12-11T12:32:03Z
2019-12-11T10:34:36Z,42.805,6.029,13.2960,4.59958,2469.937,2019-12-11T12:35:06Z
2019-12-11T10:37:39Z,42.805,6.029,13.2959,4.59957,2469.937,2019-12-11T12:38:09Z
2019-12-11T10:40:43Z,42.805,6.029,13.2958,4.59958,2469.9,2019-12-11T12:41:12Z
2019-12-11T10:43:46Z,42.805,6.029,13.2961,4.59957,2469.9,2019-12-11T12:44:16Z
2019-12-11T10:46:49Z,42.805,6.029,13.2960,4.59958,2469.914,2019-12-11T12:47:19Z
2019-12-11T10:49:52Z,42.805,6.029,13.2960,4.59957,2469.876,2019-12-11T12:50:22Z
2019-12-11T10:52:55Z,42.805,6.029,13.2964,4.59956,2469.876,2019-12-11T12:53:25Z
2019-12-11T10:55:59Z,42.805,6.029,13.2958,4.59958,2469.9,2019-12-11T12:56:28Z
2019-12-11T10:59:02Z,42.805,6.029,13.2959,4.59957,2469.876,2019-12-11T12:59:32Z
2019-12-11T11:02:05Z,42.805,6.029,13.2960,4.59957,2469.876,2019-12-11T13:02:35Z
2019-12-11T11:05:08Z,42.805,6.029,13.2959,4.59956,2469.9,2019-12-11T13:05:38Z
2019-12-11T11:08:11Z,42.805,6.029,13.2959,4.59957,2469.876,2019-12-11T13:08:41Z
2019-12-11T11:11:15Z,42.805,6.029,13.2961,4.59958,2469.89,2019-12-11T13:11:44Z
2019-12-11T11:14:18Z,42.805,6.029,13.2958,4.59957,2469.914,2019-12-11T13:14:48Z
2019-12-11T11:17:21Z,42.805,6.029,13.2958,4.59957,2469.853,2019-12-11T13:17:51Z
2019-12-11T11:20:24Z,42.805,6.029,13.2957,4.59956,2469.876,2019-12-11T13:20:54Z
2019-12-11T11:23:27Z,42.805,6.029,13.2963,4.59957,2469.853,2019-12-11T13:23:57Z
2019-12-11T11:26:31Z,42.805,6.029,13.2957,4.59958,2469.914,2019-12-11T13:27:00Z
2019-12-11T11:29:34Z,42.805,6.029,13.2960,4.59956,2469.876,2019-12-11T13:30:04Z
2019-12-11T11:32:37Z,42.805,6.029,13.2958,4.59958,2469.89,2019-12-11T13:33:07Z
2019-12-11T11:35:40Z,42.805,6.029,13.2959,4.59957,2469.853,2019-12-11T13:36:10Z
2019-12-11T11:38:44Z,42.805,6.029,13.2956,4.59956,2469.853,2019-12-11T13:39:13Z
2019-12-11T11:41:47Z,42.805,6.029,13.2959,4.59957,2469.876,2019-12-11T13:42:17Z
2019-12-11T11:44:50Z,42.805,6.029,13.2961,4.59956,2469.867,2019-12-11T13:45:20Z
2019-12-11T11:47:53Z,42.805,6.029,13.2958,4.59956,2469.863,2019-12-11T13:48:23Z
2019-12-11T11:50:56Z,42.805,6.029,13.2959,4.59957,2469.83,2019-12-11T13:51:26Z
2019-12-11T11:54:00Z,42.805,6.029,13.2960,4.59956,2469.83,2019-12-11T13:54:29Z
2019-12-11T11:57:03Z,42.805,6.029,13.2960,4.59956,2469.876,2019-12-11T13:57:33Z
2019-12-11T12:00:06Z,42.805,6.029,13.2960,4.59956,2469.844,2019-12-11T14:00:36Z
2019-12-11T12:03:09Z,42.805,6.029,13.2964,4.59958,2469.876,2019-12-11T14:03:39Z
2019-12-11T12:06:12Z,42.805,6.029,13.2958,4.59959,2469.844,2019-12-11T14:06:42Z
2019-12-11T12:09:15Z,42.805,6.029,13.2961,4.59956,2469.867,2019-12-11T14:09:45Z
2019-12-11T12:12:19Z,42.805,6.029,13.2961,4.59957,2469.83,2019-12-11T14:12:48Z
2019-12-11T12:15:22Z,42.805,6.029,13.2962,4.59956,2469.867,2019-12-11T14:15:52Z
2019-12-11T12:18:25Z,42.805,6.029,13.2957,4.59957,2469.853,2019-12-11T14:18:55Z
2019-12-11T12:21:28Z,42.805,6.029,13.2961,4.59956,2469.83,2019-12-11T14:21:58Z
2019-12-11T12:24:32Z,42.805,6.029,13.2959,4.59956,2469.821,2019-12-11T14:25:01Z
2019-12-11T12:27:35Z,42.805,6.029,13.2958,4.59956,2469.844,2019-12-11T14:28:05Z
2019-12-11T12:30:38Z,42.805,6.029,13.2964,4.59957,2469.853,2019-12-11T14:31:08Z
2019-12-11T12:33:41Z,42.805,6.029,13.2959,4.59956,2469.876,2019-12-11T14:34:11Z
2019-12-11T12:36:44Z,42.805,6.029,13.2958,4.59956,2469.83,2019-12-11T14:37:14Z
2019-12-11T12:39:47Z,42.805,6.029,13.2957,4.59956,2469.83,2019-12-11T14:40:17Z
2019-12-11T12:42:51Z,42.805,6.029,13.2959,4.59957,2469.806,2019-12-11T14:43:20Z
2019-12-11T12:45:54Z,42.805,6.029,13.2960,4.59957,2469.844,2019-12-11T14:46:24Z
2019-12-11T12:48:57Z,42.805,6.029,13.2962,4.59956,2469.853,2019-12-11T14:49:27Z
2019-12-11T12:52:01Z,42.805,6.029,13.2962,4.59956,2469.844,2019-12-11T14:52:30Z
2019-12-11T12:55:04Z,42.805,6.029,13.2961,4.59957,2469.83,2019-12-11T14:55:33Z
2019-12-11T12:58:07Z,42.805,6.029,13.2958,4.59956,2469.867,2019-12-11T14:58:37Z
2019-12-11T13:01:10Z,42.805,6.029,13.2959,4.59956,2469.853,2019-12-11T15:01:40Z
2019-12-11T13:04:13Z,42.805,6.029,13.2957,4.59957,2469.806,2019-12-11T15:04:43Z
2019-12-11T13:07:17Z,42.805,6.029,13.2958,4.59956,2469.806,2019-12-11T15:07:47Z
2019-12-11T13:10:20Z,42.805,6.029,13.2964,4.59956,2469.844,2019-12-11T15:10:50Z
2019-12-11T13:13:23Z,42.805,6.029,13.2958,4.59958,2469.806,2019-12-11T15:13:53Z
2019-12-11T13:16:26Z,42.805,6.029,13.2963,4.59956,2469.83,2019-12-11T15:16:56Z
2019-12-11T13:19:30Z,42.805,6.029,13.2958,4.59956,2469.83,2019-12-11T15:19:59Z
2019-12-11T13:22:33Z,42.805,6.029,13.2959,4.59956,2469.844,2019-12-11T15:23:03Z
2019-12-11T13:25:36Z,42.805,6.029,13.2957,4.59957,2469.783,2019-12-11T15:26:06Z
2019-12-11T13:28:39Z,42.805,6.029,13.2961,4.59958,2469.806,2019-12-11T15:29:09Z
2019-12-11T13:31:42Z,42.805,6.029,13.2962,4.59957,2469.806,2019-12-11T15:32:12Z
2019-12-11T13:34:46Z,42.805,6.029,13.2960,4.59956,2469.797,2019-12-11T15:35:15Z
2019-12-11T13:37:49Z,42.805,6.029,13.2961,4.59957,2469.83,2019-12-11T15:38:19Z
2019-12-11T13:40:52Z,42.805,6.029,13.2967,4.59957,2469.853,2019-12-11T15:41:22Z
2019-12-11T13:43:55Z,42.805,6.029,13.2961,4.59957,2469.821,2019-12-11T15:44:25Z
2019-12-11T13:46:58Z,42.805,6.029,13.2964,4.59957,2469.844,2019-12-11T15:47:28Z
2019-12-11T13:50:02Z,42.805,6.029,13.2957,4.59958,2469.783,2019-12-11T15:50:31Z
2019-12-11T13:53:05Z,42.805,6.029,13.2957,4.59958,2469.83,2019-12-11T15:53:35Z
2019-12-11T13:56:08Z,42.805,6.029,13.2956,4.59957,2469.83,2019-12-11T15:56:38Z
2019-12-11T13:59:11Z,42.805,6.029,13.2961,4.59957,2469.821,2019-12-11T15:59:41Z
2019-12-11T14:02:14Z,42.805,6.029,13.2958,4.59957,2469.821,2019-12-11T16:02:44Z
2019-12-11T14:05:18Z,42.805,6.029,13.2964,4.59957,2469.844,2019-12-11T16:05:47Z
2019-12-11T14:08:21Z,42.805,6.029,13.2958,4.59957,2469.797,2019-12-11T16:08:51Z
2019-12-11T14:11:24Z,42.805,6.029,13.2957,4.59956,2469.806,2019-12-11T16:11:54Z
2019-12-11T14:14:27Z,42.805,6.029,13.2961,4.59956,2469.83,2019-12-11T16:14:57Z
2019-12-11T14:17:30Z,42.805,6.029,13.2960,4.59958,2469.853,2019-12-11T16:18:00Z
2019-12-11T14:20:34Z,42.805,6.029,13.2961,4.59958,2469.806,2019-12-11T16:21:03Z
2019-12-11T14:23:37Z,42.805,6.029,13.2961,4.59956,2469.83,2019-12-11T16:24:07Z
2019-12-11T14:26:40Z,42.805,6.029,13.2960,4.59956,2469.83,2019-12-11T16:27:10Z
2019-12-11T14:29:43Z,42.805,6.029,13.2962,4.59957,2469.806,2019-12-11T16:30:13Z
2019-12-11T14:32:46Z,42.805,6.029,13.2960,4.59958,2469.844,2019-12-11T16:33:16Z
2019-12-11T14:35:49Z,42.805,6.029,13.2964,4.59956,2469.821,2019-12-11T16:36:19Z
2019-12-11T14:38:53Z,42.805,6.029,13.2957,4.59956,2469.821,2019-12-11T16:39:22Z
2019-12-11T14:41:56Z,42.805,6.029,13.2957,4.59958,2469.876,2019-12-11T16:42:26Z
2019-12-11T14:45:00Z,42.805,6.029,13.2961,4.59958,2469.821,2019-12-11T16:45:29Z
2019-12-11T14:48:03Z,42.805,6.029,13.2958,4.59958,2469.853,2019-12-11T16:48:33Z
2019-12-11T14:51:06Z,42.805,6.029,13.2960,4.59957,2469.844,2019-12-11T16:51:36Z
2019-12-11T14:54:09Z,42.805,6.029,13.2961,4.59957,2469.806,2019-12-11T16:54:39Z
2019-12-11T14:57:12Z,42.805,6.029,13.2959,4.59957,2469.844,2019-12-11T16:57:42Z
2019-12-11T15:00:16Z,42.805,6.029,13.2963,4.59958,2469.83,2019-12-11T17:00:46Z
2019-12-11T15:03:19Z,42.805,6.029,13.2957,4.59958,2469.844,2019-12-11T17:03:49Z